Home   Weather   35°28'N, 79°10'W   Past weeks
Flag for USA

Past Weather in 35°28'N, 79°10'W, USA — Yesterday and Last 2 Weeks

Now
69 °F

Clear.


Feels Like: 69 °F
Forecast: 90 / 70 °F
Wind: 6 mph from Southwest

Location: Raleigh-Durham International Airport

Current Time: May 19, 2019 at 6:48:28 am

Latest Report: May 19, 2019 at 5:51 am


Visibility: 10 mi

Pressure: 30.03 "Hg

Humidity: 87%

Dew Point: 65 °F

Location of 35°28'N, 79°10'WLocation

Past Weather in 35°28'N, 79°10'W — Graph

°F

35°28'N, 79°10'W Temperature Yesterday

Maximum temperature yesterday: 90 °F (at 3:51 pm)
Minimum temperature yesterday: 62 °F (at 5:51 am)
Average temperature yesterday: 77 °F

High & Low Weather Summary for the Past Weeks

 TemperatureHumidityPressure
High90 °F (May 18, 3:51 pm)100% (May 4, 10:30 pm)30.21 "Hg (May 4, 10:30 pm)
Low44 °F (May 15, 5:51 am)32% (May 15, 2:51 pm)29.66 "Hg (May 5, 1:51 pm)
Average69 °F74%29.94 "Hg
* Reported May 4 4:51 am — May 19 4:51 am, 35°28'N, 79°10'W. Weather by CustomWeather, © 2019

Note: Actual official high and low records may vary slightly from our data, if they occured in-between our weather recording intervals... More about our weather records

Advertising

35°28'N, 79°10'W Weather History for the Previous 24 Hours

Scroll right to see more
 ConditionsComfort  
Time TempWeatherWind HumidityBarometerVisibility
4:51 am
Sun, May 19
70 °FClear.6 mph79%30.02 "Hg10 mi
3:51 am71 °FClear.5 mph78%30.01 "Hg10 mi
2:51 am73 °FPassing clouds.6 mph74%30.01 "Hg10 mi
1:51 am75 °FPassing clouds.6 mph69%30.01 "Hg10 mi
12:51 am74 °FPassing clouds.6 mph69%30.01 "Hg10 mi
11:51 pm
Sat, May 18
77 °FPassing clouds.No wind64%30.01 "Hg10 mi
10:51 pm75 °FPassing clouds.No wind74%30.01 "Hg10 mi
9:51 pm76 °FPassing clouds.No wind69%29.99 "Hg10 mi
8:51 pm79 °FPassing clouds.No wind67%29.97 "Hg10 mi
7:51 pm82 °FScattered clouds.No wind56%29.96 "Hg10 mi
6:51 pm87 °FScattered clouds.7 mph45%29.95 "Hg10 mi
5:51 pm89 °FScattered clouds.5 mph42%29.94 "Hg10 mi
4:51 pm88 °FScattered clouds.5 mph45%29.94 "Hg10 mi
3:51 pm90 °FScattered clouds.No wind37%29.95 "Hg10 mi
2:51 pm88 °FScattered clouds.6 mph42%29.98 "Hg10 mi
1:51 pm89 °FPassing clouds.No wind42%29.99 "Hg10 mi
12:51 pm88 °FPassing clouds.6 mph45%30.01 "Hg10 mi
11:51 am87 °FPassing clouds.3 mph48%30.01 "Hg10 mi
10:51 am83 °FPassing clouds.3 mph57%30.02 "Hg10 mi
9:51 am80 °FPassing clouds.3 mph56%30.01 "Hg10 mi
8:51 am74 °FPartly sunny.No wind69%30.00 "Hg10 mi
7:51 am70 °FPartly sunny.No wind79%29.98 "Hg9 mi
6:51 am63 °FPartly sunny.No wind97%29.97 "Hg9 mi
Weather by CustomWeather, © 2019

See weather overview